| time (UTC) | temp F | wind direction | speed knots | gust knots | rain 1hr in | rain 24hr in | rain mn in | humidity % | barometer mb |
| 20260510091023 | 56 | 39 | 7.0 | 11.3 | 0.00 | 0.00 | 0.00 | 74 | 1012.1 |
| 20260510090049 | 56 | 39 | 7.0 | 11.3 | 0.00 | 0.00 | 0.00 | 74 | 1012.1 |
| 20260510084047 | 55 | 40 | 6.1 | 12.2 | 0.00 | 0.00 | 0.00 | 75 | 1012.2 |
| 20260510083048 | 55 | 38 | 5.2 | 8.7 | 0.00 | 0.00 | 0.00 | 75 | 1012.4 |
| 20260510082045 | 55 | 43 | 6.1 | 9.6 | 0.00 | 0.00 | 0.00 | 76 | 1012.5 |
| 20260510081048 | 54 | 31 | 5.2 | 9.6 | 0.00 | 0.00 | 0.00 | 77 | 1012.5 |
| 20260510075048 | 54 | 30 | 5.2 | 8.7 | 0.00 | 0.00 | 0.00 | 79 | 1012.6 |
| 20260510074023 | 53 | 28 | 5.2 | 7.8 | 0.00 | 0.00 | 0.00 | 79 | 1012.6 |
| 20260510073023 | 53 | 31 | 5.2 | 7.8 | 0.00 | 0.00 | 0.00 | 80 | 1012.7 |
| 20260510072045 | 52 | 33 | 5.2 | 9.6 | 0.00 | 0.00 | 0.00 | 81 | 1012.7 |
| 20260510071047 | 52 | 27 | 4.3 | 8.7 | 0.00 | 0.00 | 0.00 | 81 | 1012.7 |
| 20260510070046 | 52 | 19 | 4.3 | 8.7 | 0.00 | 0.00 | 0.00 | 82 | 1012.7 |
| 20260510064045 | 51 | 10 | 6.1 | 8.7 | 0.00 | 0.00 | 0.00 | 82 | 1012.6 |
| 20260510063047 | 51 | 9 | 5.2 | 8.7 | 0.00 | 0.00 | 0.00 | 83 | 1012.6 |
| 20260510062049 | 50 | 11 | 5.2 | 7.0 | 0.00 | 0.00 | 0.00 | 84 | 1012.6 |
| 20260510061047 | 50 | 14 | 4.3 | 7.0 | 0.00 | 0.00 | 0.00 | 83 | 1012.6 |
| 20260510060023 | 50 | 11 | 3.5 | 6.1 | 0.00 | 0.00 | 0.00 | 83 | 1012.7 |
| 20260510055048 | 51 | 12 | 3.5 | 6.1 | 0.00 | 0.00 | 0.00 | 81 | 1012.7 |
| 20260510054022 | 51 | 9 | 2.6 | 5.2 | 0.00 | 0.00 | 0.00 | 80 | 1012.8 |
| 20260510052023 | 50 | 29 | 2.6 | 4.3 | 0.00 | 0.00 | 0.00 | 81 | 1012.8 |
| 20260510051021 | 50 | 28 | 2.6 | 3.5 | 0.00 | 0.00 | 0.00 | 81 | 1012.8 |
| 20260510050022 | 50 | 28 | 3.5 | 4.3 | 0.00 | 0.00 | 0.00 | 81 | 1012.7 |
| 20260510045023 | 50 | 22 | 2.6 | 4.3 | 0.00 | 0.00 | 0.00 | 82 | 1012.8 |
| 20260510044022 | 50 | 22 | 2.6 | 4.3 | 0.00 | 0.00 | 0.00 | 81 | 1012.8 |
| 20260510043040 | 50 | 27 | 2.6 | 4.3 | 0.00 | 0.00 | 0.00 | 80 | 1012.8 |
| 20260510042040 | 50 | 26 | 2.6 | 5.2 | 0.00 | 0.00 | 0.00 | 80 | 1012.9 |
| 20260510041022 | 50 | 22 | 1.7 | 3.5 | 0.00 | 0.00 | 0.00 | 80 | 1012.9 |
| 20260510040022 | 51 | 19 | 1.7 | 2.6 | 0.00 | 0.00 | 0.00 | 79 | 1012.8 |
| 20260510035048 | 51 | 32 | 2.6 | 3.5 | 0.00 | 0.00 | 0.00 | 80 | 1012.9 |
| 20260510034022 | 51 | 32 | 2.6 | 3.5 | 0.00 | 0.00 | 0.00 | 79 | 1013.1 |
| 20260510033048 | 51 | 1 | 0.9 | 2.6 | 0.00 | 0.00 | 0.00 | 79 | 1013.1 |
| 20260510031047 | 51 | 38 | 2.6 | 4.3 | 0.00 | 0.00 | 0.00 | 78 | 1013.2 |
| 20260510030047 | 51 | 36 | 2.6 | 4.3 | 0.00 | 0.00 | 0.00 | 77 | 1013.3 |
| 20260510025046 | 52 | 39 | 3.5 | 6.1 | 0.00 | 0.00 | 0.00 | 75 | 1013.2 |
| 20260510024046 | 51 | 77 | 2.6 | 5.2 | 0.00 | 0.00 | 0.00 | 75 | 1013.2 |
| 20260510023043 | 51 | 43 | 2.6 | 5.2 | 0.00 | 0.00 | 0.00 | 75 | 1013.3 |
| 20260510022046 | 52 | 33 | 3.5 | 6.1 | 0.00 | 0.00 | 0.00 | 74 | 1013.2 |
| 20260510021046 | 52 | 47 | 2.6 | 5.2 | 0.00 | 0.00 | 0.00 | 74 | 1013.3 |
| 20260510020046 | 52 | 45 | 2.6 | 4.3 | 0.00 | 0.00 | 0.00 | 74 | 1013.4 |
| 20260510015046 | 52 | 36 | 3.5 | 5.2 | 0.00 | 0.00 | 0.00 | 74 | 1013.3 |
| 20260510014046 | 51 | 33 | 3.5 | 6.1 | 0.00 | 0.00 | 0.00 | 74 | 1013.6 |
| 20260510013044 | 51 | 35 | 3.5 | 5.2 | 0.00 | 0.00 | 0.00 | 75 | 1013.7 |
| 20260510012046 | 51 | 19 | 3.5 | 5.2 | 0.00 | 0.00 | 0.00 | 76 | 1013.7 |
| 20260510010043 | 51 | 14 | 3.5 | 4.3 | 0.00 | 0.00 | 0.00 | 77 | 1013.8 |
| 20260510005043 | 51 | 23 | 3.5 | 4.3 | 0.00 | 0.00 | 0.00 | 76 | 1014.0 |
| 20260510004045 | 51 | 24 | 3.5 | 5.2 | 0.00 | 0.00 | 0.00 | 77 | 1014.0 |
| 20260510003044 | 51 | 23 | 3.5 | 5.2 | 0.00 | 0.00 | 0.00 | 76 | 1014.1 |
| 20260510002046 | 51 | 21 | 3.5 | 4.3 | 0.00 | 0.00 | 0.00 | 75 | 1014.1 |
| 20260510001046 | 52 | 28 | 3.5 | 5.2 | 0.00 | 0.00 | 0.00 | 74 | 1014.2 |
| 20260510000049 | 52 | 40 | 3.5 | 6.1 | 0.00 | 0.00 | 0.00 | 75 | 1014.2 |
| 20260509234050 | 52 | 36 | 3.5 | 5.2 | 0.00 | 0.00 | 0.00 | 74 | 1014.2 |
| 20260509233049 | 52 | 19 | 3.5 | 5.2 | 0.00 | 0.00 | 0.00 | 74 | 1014.2 |
| 20260509232050 | 53 | 12 | 3.5 | 6.1 | 0.00 | 0.00 | 0.00 | 73 | 1014.2 |
| 20260509231051 | 52 | 19 | 3.5 | 5.2 | 0.00 | 0.00 | 0.00 | 73 | 1014.4 |
| 20260509225052 | 53 | 27 | 3.5 | 4.3 | 0.00 | 0.00 | 0.00 | 73 | 1014.5 |
| 20260509224053 | 53 | 45 | 3.5 | 6.1 | 0.00 | 0.00 | 0.00 | 72 | 1014.5 |
| 20260509223051 | 53 | 48 | 3.5 | 6.1 | 0.00 | 0.00 | 0.00 | 72 | 1014.5 |
| 20260509222054 | 53 | 40 | 3.5 | 6.1 | 0.00 | 0.00 | 0.00 | 72 | 1014.6 |
| 20260509221053 | 54 | 36 | 3.5 | 5.2 | 0.00 | 0.00 | 0.00 | 70 | 1014.5 |
| 20260509220051 | 54 | 34 | 4.3 | 5.2 | 0.00 | 0.00 | 0.00 | 71 | 1014.6 |
| 20260509215057 | 54 | 34 | 4.3 | 5.2 | 0.00 | 0.00 | 0.00 | 71 | 1014.6 |
| 20260509214056 | 54 | 42 | 4.3 | 7.0 | 0.00 | 0.00 | 0.00 | 71 | 1014.6 |
| 20260509213054 | 55 | 39 | 4.3 | 7.0 | 0.00 | 0.00 | 0.00 | 70 | 1014.6 |
| 20260509212055 | 55 | 39 | 4.3 | 7.0 | 0.00 | 0.00 | 0.00 | 69 | 1014.6 |
| 20260509211056 | 55 | 36 | 4.3 | 7.0 | 0.00 | 0.00 | 0.00 | 68 | 1014.6 |
| 20260509210054 | 55 | 30 | 4.3 | 7.0 | 0.00 | 0.00 | 0.00 | 68 | 1014.5 |
| 20260509204055 | 56 | 22 | 4.3 | 7.8 | 0.00 | 0.00 | 0.00 | 66 | 1014.6 |
| 20260509203056 | 57 | 28 | 4.3 | 7.0 | 0.00 | 0.00 | 0.00 | 65 | 1014.6 |
| 20260509202056 | 57 | 28 | 4.3 | 7.0 | 0.00 | 0.00 | 0.00 | 65 | 1014.6 |
| 20260509201056 | 57 | 28 | 4.3 | 7.0 | 0.00 | 0.00 | 0.00 | 64 | 1014.6 |
| 20260509200056 | 58 | 20 | 4.3 | 7.8 | 0.00 | 0.00 | 0.00 | 64 | 1014.5 |
| 20260509195055 | 58 | 28 | 5.2 | 10.4 | 0.00 | 0.00 | 0.00 | 63 | 1014.4 |
| 20260509194052 | 59 | 30 | 6.1 | 8.7 | 0.00 | 0.00 | 0.00 | 62 | 1014.3 |
| 20260509193058 | 59 | 30 | 6.1 | 8.7 | 0.00 | 0.00 | 0.00 | 62 | 1014.1 |
| 20260509192054 | 59 | 28 | 6.1 | 10.4 | 0.00 | 0.00 | 0.00 | 61 | 1014.1 |
| 20260509191054 | 60 | 23 | 6.1 | 9.6 | 0.00 | 0.00 | 0.00 | 59 | 1014.0 |
| 20260509190056 | 60 | 24 | 5.2 | 8.7 | 0.00 | 0.00 | 0.00 | 59 | 1014.0 |
| 20260509185055 | 61 | 27 | 6.1 | 12.2 | 0.00 | 0.00 | 0.00 | 59 | 1013.9 |
| 20260509184052 | 62 | 23 | 6.1 | 10.4 | 0.00 | 0.00 | 0.00 | 58 | 1013.9 |
| 20260509183055 | 62 | 26 | 7.0 | 12.2 | 0.00 | 0.00 | 0.00 | 58 | 1013.8 |
| 20260509181051 | 63 | 27 | 6.1 | 10.4 | 0.00 | 0.00 | 0.00 | 57 | 1013.5 |
| 20260509180053 | 64 | 26 | 4.3 | 7.8 | 0.00 | 0.00 | 0.00 | 56 | 1013.4 |
| 20260509175051 | 64 | 23 | 6.1 | 10.4 | 0.00 | 0.00 | 0.00 | 56 | 1013.3 |
| 20260509174053 | 64 | 29 | 6.1 | 11.3 | 0.00 | 0.00 | 0.00 | 56 | 1013.4 |
| 20260509173053 | 64 | 18 | 6.1 | 9.6 | 0.00 | 0.00 | 0.00 | 55 | 1013.6 |
| 20260509171051 | 66 | 27 | 6.1 | 11.3 | 0.00 | 0.00 | 0.00 | 52 | 1013.2 |
| 20260509170051 | 66 | 39 | 6.1 | 9.6 | 0.00 | 0.00 | 0.00 | 51 | 1013.1 |
| 20260509165050 | 66 | 36 | 6.1 | 8.7 | 0.00 | 0.00 | 0.00 | 51 | 1013.0 |
| 20260509164050 | 67 | 63 | 5.2 | 10.4 | 0.00 | 0.00 | 0.00 | 50 | 1013.0 |
| 20260509163050 | 67 | 63 | 4.3 | 10.4 | 0.00 | 0.00 | 0.00 | 49 | 1013.0 |
| 20260509162051 | 67 | 55 | 5.2 | 10.4 | 0.00 | 0.00 | 0.00 | 50 | 1013.0 |
| 20260509161051 | 68 | 49 | 5.2 | 8.7 | 0.00 | 0.00 | 0.00 | 48 | 1013.0 |
| 20260509153048 | 68 | 39 | 5.2 | 9.6 | 0.00 | 0.00 | 0.00 | 48 | 1013.3 |
| 20260509152053 | 68 | 53 | 4.3 | 7.0 | 0.00 | 0.00 | 0.00 | 46 | 1013.4 |
| 20260509151049 | 68 | 51 | 5.2 | 7.8 | 0.00 | 0.00 | 0.00 | 48 | 1013.6 |
| 20260509150049 | 69 | 5 | 3.5 | 7.8 | 0.00 | 0.00 | 0.00 | 47 | 1013.5 |
| 20260509144045 | 68 | 28 | 4.3 | 7.8 | 0.00 | 0.00 | 0.00 | 47 | 1013.6 |
| 20260509143048 | 68 | 72 | 3.5 | 7.0 | 0.00 | 0.00 | 0.00 | 47 | 1013.7 |
| 20260509142048 | 67 | 70 | 3.5 | 6.1 | 0.00 | 0.00 | 0.00 | 48 | 1013.9 |
| 20260509141052 | 68 | 70 | 3.5 | 7.8 | 0.00 | 0.00 | 0.00 | 46 | 1013.9 |
| 20260509133049 | 67 | 291 | 4.3 | 9.6 | 0.00 | 0.00 | 0.00 | 46 | 1014.3 |
| 20260509132047 | 68 | 57 | 3.5 | 8.7 | 0.00 | 0.00 | 0.00 | 47 | 1014.4 |
| 20260509131047 | 68 | 46 | 2.6 | 7.8 | 0.00 | 0.00 | 0.00 | 47 | 1014.4 |
| 20260509130046 | 68 | 11 | 4.3 | 8.7 | 0.00 | 0.00 | 0.00 | 47 | 1014.5 |
| 20260509124047 | 67 | 357 | 3.5 | 8.7 | 0.00 | 0.00 | 0.00 | 46 | 1014.8 |
| 20260509123048 | 67 | 45 | 3.5 | 7.8 | 0.00 | 0.00 | 0.00 | 45 | 1014.8 |
| 20260509122046 | 69 | 23 | 5.2 | 7.8 | 0.00 | 0.00 | 0.00 | 46 | 1014.9 |
| 20260509121048 | 67 | 272 | 5.2 | 8.7 | 0.00 | 0.00 | 0.00 | 43 | 1015.0 |
| 20260509115048 | 67 | 87 | 3.5 | 7.8 | 0.00 | 0.00 | 0.00 | 46 | 1015.2 |
| 20260509114047 | 67 | 1 | 2.6 | 7.8 | 0.00 | 0.00 | 0.00 | 46 | 1015.4 |
| 20260509113050 | 67 | 63 | 4.3 | 7.8 | 0.00 | 0.00 | 0.00 | 46 | 1015.5 |
| 20260509112045 | 66 | 40 | 3.5 | 7.8 | 0.00 | 0.00 | 0.00 | 47 | 1015.6 |
| 20260509111049 | 66 | 77 | 3.5 | 8.7 | 0.00 | 0.00 | 0.00 | 47 | 1015.7 |
| 20260509110046 | 66 | 102 | 3.5 | 7.0 | 0.00 | 0.00 | 0.00 | 49 | 1015.8 |
| 20260509104046 | 66 | 76 | 4.3 | 8.7 | 0.00 | 0.00 | 0.00 | 50 | 1015.9 |
| 20260509103047 | 66 | 94 | 4.3 | 9.6 | 0.00 | 0.00 | 0.00 | 49 | 1016.0 |
| 20260509102047 | 66 | 79 | 3.5 | 7.0 | 0.00 | 0.00 | 0.00 | 50 | 1016.0 |
| 20260509101048 | 65 | 81 | 4.3 | 7.8 | 0.00 | 0.00 | 0.00 | 52 | 1016.1 |
| 20260509100047 | 64 | 307 | 4.3 | 8.7 | 0.00 | 0.00 | 0.00 | 51 | 1016.1 |
| 20260509095047 | 64 | 83 | 4.3 | 10.4 | 0.00 | 0.00 | 0.00 | 52 | 1016.2 |
| 20260509094045 | 64 | 79 | 5.2 | 9.6 | 0.00 | 0.00 | 0.00 | 52 | 1016.2 |
| 20260509093037 | 64 | 80 | 5.2 | 8.7 | 0.00 | 0.00 | 0.00 | 55 | 1016.2 |
| 20260509092023 | 63 | 93 | 4.3 | 7.8 | 0.00 | 0.00 | 0.00 | 58 | 1016.2 |